RH
11 12 13 14 15 15 16 17 18 18 19 20 21 21 22 22 22 22 22 21 21 21 21 21 21 21 21 20 19 19 19 19 19 19 18 19 19 19 19 18 17 16 15 16 16 16 15 14 13 12 11 10
15 16 17 17 19 20 20 21 22 22 23 23 24 24 24 25 24 25 24 24 24 24 23 23 22 22 22 21 21 20 19 19 19 19 19 19 20 20 21 20 20 19 18 18 17 17 17 17 16 15 15 14
20 21 21 23 24 25 26 26 27 27 27 27 28 28 28 28 28 28 27 27 27 27 26 25 25 24 23 23 22 21 21 20 20 19 19 19 19 20 21 21 22 22 21 21 20 19 19 19 18 18 17 17
24 25 26 27 28 29 30 31 32 32 32 32 32 32 31 31 30 30 29 28 28 27 26 25 25 24 24 23 22 21 21 20 20 19 19 19 19 19 20 20 22 23 23 23 23 22 21 21 21 21 21 20
28 29 31 32 33 34 35 35 35 35 34 33 32 31 30 29 27 26 25 24 23 22 22 21 20 20 19 19 19 18 18 18 18 18 18 18 18 19 19 19 20 22 23 24 25 25 24 24 23 23 24 24
33 34 35 36 36 36 36 35 33 32 30 29 27 25 23 22 21 20 19 18 17 17 16 16 16 16 16 15 15 15 15 16 16 16 16 16 17 18 18 19 19 20 21 22 24 26 26 27 26 26 26 26
37 37 37 36 35 33 31 28 26 24 22 20 18 17 16 15 14 14 13 13 13 13 13 13 13 13 14 14 14 15 15 15 15 15 16 16 17 17 18 18 19 20 20 21 22 24 26 27 28 29 28 27
36 35 32 29 27 24 22 19 17 16 14 14 12 12 11 11 11 11 10 10 10 10 11 11 11 12 12 13 13 14 14 15 16 16 16 16 17 18 18 19 19 20 20 21 22 23 26 27 29 30 31 31
30 27 24 21 18 16 15 13 12 11 11 10 10 9 9 8 8 8 8 8 8 8 9 9 9 10 10 11 11 12 13 14 15 15 16 16 17 18 18 19 19 20 21 22 22 24 26 28 29 31 33 34
22 19 16 15 13 12 11 10 10 9 8 7 7 6 6 6 6 6 6 6 7 7 7 8 8 9 9 10 10 11 12 13 14 14 15 15 16 17 18 18 19 20 21 22 23 24 26 28 30 32 34 36
15 14 13 12 11 10 9 8 7 6 5 5 4 5 5 5 5 5 6 6 7 7 7 8 8 9 9 10 10 10 11 12 12 13 14 14 15 16 16 17 18 19 20 21 22 24 25 27 29 33 37 40
13 12 11 10 9 7 6 5 4 4 4 4 4 4 4 5 5 5 6 7 7 7 8 8 8 9 9 10 10 10 11 11 12 12 13 14 14 15 16 17 17 18 19 21 22 23 25 27 29 33 37 42
11 10 9 7 6 5 4 4 3 3 3 3 4 4 4 4 5 5 6 6 7 7 7 8 9 9 10 10 10 10 10 11 11 12 13 13 14 15 16 16 17 18 19 21 23 25 27 30 33 37 41 45
9 8 6 5 4 4 3 3 3 3 3 3 3 4 4 4 5 5 6 6 7 7 8 9 10 10 11 11 11 11 11 12 12 12 13 14 15 16 17 18 19 21 22 24 28 31 34 37 42 46 50 54
6 5 4 4 3 3 3 3 2 2 3 3 3 4 4 4 5 6 7 8 8 9 10 10 11 11 12 12 12 12 12 14 14 15 17 18 20 21 22 24 26 27 28 31 34 39 44 48 53 60 65 69
5 4 3 3 3 3 2 2 2 2 3 3 3 4 4 5 6 8 9 10 11 11 12 12 12 12 12 13 14 14 15 17 20 21 23 26 29 33 35 36 39 41 42 45 48 52 56 60 67 75 79 83
3 3 3 3 2 2 2 2 2 2 3 3 4 5 6 7 9 11 12 13 14 13 13 13 12 13 13 14 15 16 18 21 25 29 31 34 37 42 46 49 52 56 60 65 70 73 76 79 84 89 91 92
3 3 2 2 2 2 2 2 2 2 3 4 5 6 7 10 12 14 16 16 15 14 13 12 12 12 12 14 16 18 22 27 32 39 45 48 50 52 56 59 61 64 69 77 84 88 92 95 97 98 98 99
3 3 2 2 2 2 2 2 2 3 4 5 6 8 9 12 15 17 18 17 15 14 13 12 12 11 12 14 17 22 30 37 43 49 56 62 65 66 67 70 72 72 76 82 89 95 99 101 101 101 101 100
2 2 2 2 2 2 2 2 3 4 5 6 7 9 11 14 18 20 20 18 16 15 14 14 13 13 14 17 21 29 41 53 60 62 64 69 73 76 79 82 84 85 85 89 95 100 101 101 102 102 101 100
2 2 2 2 2 2 2 3 4 5 6 7 8 10 13 16 20 23 22 19 17 16 15 15 15 15 16 19 24 33 46 60 72 77 76 76 79 83 86 90 93 94 94 96 100 102 102 101 102 101 98 97
2 2 2 2 2 2 3 4 5 6 7 8 9 11 14 19 23 26 25 22 19 18 17 16 16 15 15 18 25 34 47 61 73 82 86 85 85 88 92 94 97 100 100 100 102 103 104 103 102 98 95 91
2 2 2 2 2 3 4 5 6 7 7 8 9 12 16 21 26 29 27 23 21 19 19 18 17 16 16 17 22 31 42 56 68 79 86 88 87 88 92 95 97 100 102 103 104 105 105 103 101 98 93 89
2 2 2 2 3 4 5 6 7 7 7 8 10 12 16 21 27 31 31 27 24 22 21 21 20 19 19 19 22 27 35 46 58 69 79 85 88 88 89 92 95 97 99 102 104 104 104 102 100 98 95 90
2 2 2 3 4 5 7 7 7 7 8 9 10 13 17 21 26 32 35 33 29 26 25 24 23 22 22 23 25 30 36 43 50 57 64 71 80 86 88 91 94 97 99 101 103 103 103 102 100 99 99 97
2 2 3 4 5 6 7 7 7 7 8 9 11 14 18 22 26 32 36 37 34 30 28 27 26 27 27 28 29 32 36 41 46 51 56 60 67 75 82 87 92 96 99 102 104 103 101 101 100 100 101 102
3 3 4 5 6 7 7 7 7 7 8 10 12 15 20 23 27 32 36 38 37 34 32 30 30 31 33 34 35 35 36 38 42 47 53 58 62 66 72 78 83 88 93 98 102 102 101 101 100 100 101 102
3 4 5 6 7 7 7 7 7 7 7 9 13 17 22 26 29 33 38 41 40 38 36 35 35 35 37 38 38 38 38 38 38 42 47 53 60 65 68 71 75 78 82 88 95 99 101 101 100 101 101 101
4 5 6 7 8 8 8 8 7 7 7 8 12 18 23 27 31 37 41 44 44 43 42 41 40 40 41 41 40 39 38 37 36 38 42 48 55 62 68 71 74 75 76 79 84 91 97 99 100 101 101 101
5 6 7 8 9 9 8 8 8 7 7 8 10 16 22 28 34 39 43 46 48 48 47 47 46 46 46 45 43 41 40 39 38 38 39 42 47 53 60 66 71 75 77 79 81 85 91 95 96 98 98 99
6 7 8 9 10 10 9 9 8 8 8 8 9 13 20 27 34 40 44 47 50 51 52 52 52 53 52 50 48 46 45 45 44 43 41 41 42 45 49 54 60 68 74 80 84 87 91 95 97 96 97 97
Wind_Speed
42 43 44 45 46 47 49 50 51 52 52 53 54 55 56 56 57 58 58 59 60 60 61 61 61 61 62 62 62 62 62 61 61 61 60 60 59 59 59 59 59 59 59 59 60 60 59 59 59 59 60 60
45 46 47 48 49 50 51 52 53 54 55 55 56 57 58 59 60 60 61 62 62 63 63 64 64 64 64 65 65 65 65 64 64 64 64 63 62 62 61 61 60 60 61 61 61 61 61 61 61 61 61 61
46 48 49 50 50 51 52 53 54 55 56 57 58 59 60 61 61 62 63 64 65 65 66 67 67 67 67 68 68 67 67 67 67 66 66 66 65 65 64 63 63 62 62 62 63 63 63 63 63 62 62 62
47 49 50 51 52 53 54 55 56 57 58 59 59 60 61 62 63 64 65 65 66 67 68 68 69 70 70 70 70 70 70 70 69 69 68 67 67 67 66 66 65 64 64 64 64 64 64 65 64 64 64 63
49 50 51 52 53 54 55 57 58 59 60 61 62 63 63 64 65 66 66 67 68 69 69 70 70 71 71 72 72 72 72 72 72 71 71 70 69 68 68 67 67 66 65 65 65 65 65 66 66 65 65 65
51 52 53 54 55 56 57 58 59 60 61 63 64 65 66 67 68 68 69 70 70 71 71 72 72 72 73 73 73 73 73 73 73 73 72 72 71 70 69 68 68 67 67 66 66 66 66 66 66 66 66 66
52 53 54 55 56 57 58 59 60 62 63 64 65 66 67 69 70 71 71 72 73 73 74 74 74 74 75 75 75 75 74 74 74 73 73 72 72 71 71 70 69 68 68 67 66 66 66 66 66 67 67 67
52 53 54 55 57 58 59 60 62 63 64 65 67 68 69 71 72 73 74 75 75 76 76 76 77 76 76 76 76 76 76 75 75 75 74 73 72 71 71 70 70 69 68 68 67 67 66 67 66 66 67 67
52 54 55 56 58 59 61 62 63 65 66 68 70 71 72 73 74 75 76 77 77 78 78 78 78 78 78 77 77 76 76 75 75 74 74 73 73 72 71 70 70 69 69 68 68 67 67 66 66 66 66 67
54 55 57 58 60 61 63 65 66 68 69 71 72 73 75 76 77 78 78 79 79 79 79 79 79 79 78 77 77 76 75 74 74 73 73 72 72 71 71 70 70 69 69 68 67 67 67 66 66 66 66 66
56 57 59 60 62 63 65 67 68 70 71 73 74 76 77 79 80 80 81 81 81 81 80 79 79 78 77 76 75 74 74 73 72 71 71 70 70 70 70 69 69 69 68 68 67 67 67 66 66 66 66 66
58 59 61 62 63 65 66 68 69 71 73 75 77 79 80 81 82 82 82 82 81 80 79 78 77 76 75 74 73 72 71 70 70 69 68 68 68 68 68 68 68 67 67 66 66 66 66 66 65 65 65 65
59 60 62 63 64 66 67 69 71 74 76 79 80 82 82 83 83 82 81 80 80 78 77 75 74 73 72 71 70 70 69 68 68 67 67 66 66 66 66 66 66 65 65 65 64 64 64 64 64 64 64 64
59 60 61 63 64 66 68 71 74 78 80 82 83 84 84 84 82 81 79 77 75 74 72 71 69 68 68 67 67 66 66 66 65 65 65 64 64 64 63 63 63 63 63 63 62 62 62 62 62 62 62 62
59 60 61 62 64 68 71 75 79 81 83 84 85 84 83 81 79 76 74 71 69 67 66 65 63 63 62 62 62 62 62 62 61 61 61 61 61 61 61 60 60 60 61 60 60 60 60 60 59 59 59 60
58 59 61 64 67 71 76 79 82 84 85 85 84 82 79 76 72 69 66 64 62 61 60 59 58 58 58 57 58 57 57 57 57 57 56 56 56 56 56 56 56 56 57 57 57 57 57 57 57 57 57 57
59 61 64 68 72 75 79 82 83 85 84 83 80 76 72 68 64 61 59 58 57 56 56 55 55 55 55 55 55 54 54 54 53 53 53 52 51 50 50 51 51 51 52 52 53 54 54 54 55 55 55 55
61 64 67 71 74 77 80 82 83 83 81 77 73 69 65 61 58 56 55 54 54 54 54 54 54 54 53 53 52 52 52 51 50 49 49 48 47 46 46 46 47 47 47 48 49 50 51 51 52 53 53 54
63 66 70 73 76 78 80 81 81 79 75 71 66 62 59 57 54 53 52 53 53 53 52 52 52 52 51 51 50 50 49 48 47 46 46 45 45 45 44 44 44 44 45 45 46 47 47 48 49 50 51 52
65 68 71 73 76 78 79 79 77 73 69 65 61 58 56 54 53 52 52 52 52 52 51 51 51 51 50 50 49 48 46 45 45 45 44 43 43 43 43 43 44 44 44 45 45 45 45 45 46 47 48 49
66 69 71 74 76 77 77 75 71 67 63 61 58 56 55 53 52 51 51 51 51 51 50 50 50 49 49 49 48 47 45 44 43 43 42 41 41 42 42 43 43 44 44 45 45 45 45 45 44 45 45 46
67 69 71 73 74 74 72 69 65 62 60 58 56 55 53 52 51 50 50 51 50 49 49 48 48 48 47 47 47 47 46 44 42 41 41 41 40 40 41 41 42 43 44 44 45 45 45 44 44 43 43 43
66 68 70 71 71 69 66 63 60 58 57 56 55 53 52 51 50 49 49 49 49 48 47 47 47 46 45 45 45 45 44 44 42 41 40 41 40 40 40 40 41 42 42 43 43 44 44 44 43 43 42 42
65 67 68 68 67 64 61 59 58 57 57 56 55 53 51 50 49 48 48 48 48 47 46 46 45 44 43 42 41 41 41 41 41 41 40 40 40 40 40 40 40 40 41 41 42 42 43 43 43 42 41 41
64 65 65 64 62 59 57 56 57 57 57 57 55 53 51 49 48 48 47 47 47 47 46 45 44 43 42 41 40 38 38 38 39 39 39 39 39 39 39 39 39 39 40 40 40 41 41 42 42 42 41 41
62 63 62 60 57 55 55 56 57 57 57 56 55 53 50 49 48 47 47 47 47 46 45 44 43 43 42 41 40 38 37 37 37 37 38 38 38 38 38 39 39 39 39 39 40 40 40 40 40 41 41 41
60 60 59 57 55 54 55 56 56 56 55 55 54 52 50 48 47 46 46 46 46 45 44 44 43 42 42 41 40 39 38 37 37 37 37 37 37 37 37 38 39 39 39 39 39 39 40 40 40 40 40 40
58 58 57 56 55 55 55 56 56 55 54 53 52 50 49 48 47 46 46 46 45 44 44 43 43 42 42 42 41 41 40 38 37 37 37 37 37 36 36 37 38 39 39 40 40 40 40 40 40 40 40 40
56 56 55 55 54 55 55 56 56 55 54 52 51 49 48 48 47 46 46 45 45 44 44 43 43 43 42 42 42 42 41 40 39 38 37 37 37 36 36 36 36 37 38 39 39 39 40 40 40 40 40 40
55 54 54 54 54 54 55 56 56 55 53 52 50 49 48 47 46 45 45 45 45 44 44 43 43 43 43 43 43 43 43 41 40 39 38 37 37 36 36 35 35 35 36 37 38 38 39 39 39 40 40 40
54 54 53 53 54 54 55 55 55 54 53 51 50 49 47 46 45 44 44 44 44 44 44 44 44 44 44 44 44 44 44 42 41 40 39 38 37 36 36 35 34 34 34 35 35 36 37 37 38 38 39 39
Wind_Direction
302 302 301 301 301 301 301 301 301 301 301 300 300 300 299 298 297 297 296 295 295 294 294 293 293 292 292 292 291 291 290 290 288 287 287 285 283 281 280 278 278 277 277 276 275 274 273 272 271 270 270 269
302 302 303 303 303 303 302 302 301 301 300 300 299 299 298 298 297 296 296 295 294 294 293 292 292 291 291 290 290 289 289 288 288 287 287 286 284 282 281 279 278 277 276 275 274 274 273 273 271 270 269 269
303 303 303 303 302 302 301 300 300 299 299 299 298 297 297 296 296 295 295 294 294 293 292 292 291 291 290 289 289 288 287 287 286 285 285 284 284 283 282 280 279 277 275 274 273 273 273 272 272 271 270 269
302 302 301 301 301 301 301 301 300 300 300 299 298 298 297 296 295 295 294 293 293 292 291 291 290 289 289 288 288 287 287 286 285 284 284 283 282 282 281 280 279 278 276 275 274 273 272 272 271 271 271 270
302 302 303 303 303 303 303 302 302 302 301 301 300 299 298 297 296 296 295 294 293 292 291 290 290 289 288 287 287 286 285 285 284 284 283 282 282 281 280 280 279 278 277 275 274 273 272 271 271 271 270 270
304 305 305 304 304 304 304 303 303 302 302 301 301 300 299 298 297 296 295 294 293 292 291 290 290 289 288 287 286 285 284 283 283 282 282 281 281 280 279 279 278 277 276 275 274 273 272 271 271 270 270 270
306 306 306 306 306 305 305 304 303 303 302 301 300 300 299 298 297 296 295 294 293 292 291 290 289 288 287 286 285 285 284 283 282 282 281 280 279 279 278 278 277 276 276 275 274 273 272 271 270 270 270 269
307 307 307 307 306 305 304 304 303 302 302 301 300 299 298 297 296 295 294 293 293 292 291 290 289 288 287 286 285 284 284 283 282 282 281 280 279 278 277 277 276 276 275 274 273 272 271 271 270 269 269 269
308 307 307 306 306 305 305 305 304 303 303 302 301 300 299 298 297 296 295 294 293 292 291 291 290 289 288 287 287 286 285 284 283 282 281 281 280 279 277 277 276 275 274 274 273 272 271 270 270 269 268 268
308 308 308 308 308 307 307 306 306 305 304 303 302 301 300 299 298 297 296 295 294 293 292 292 291 290 290 289 288 287 287 286 285 284 283 282 281 280 278 277 276 275 274 274 273 272 271 270 269 269 268 267
311 310 310 309 309 308 307 307 306 305 305 304 303 302 301 300 299 298 297 296 295 294 293 292 292 291 290 290 289 288 288 287 286 285 284 283 282 281 279 278 277 276 275 274 273 272 271 270 269 269 268 268
311 311 310 309 308 308 308 307 307 306 306 305 304 302 301 300 298 297 296 296 295 295 294 293 293 292 291 291 290 289 288 288 287 286 284 283 282 281 280 279 277 276 275 274 273 272 271 270 270 269 268 268
310 309 309 309 308 308 308 308 308 307 306 305 303 302 301 300 299 299 298 298 298 297 297 296 295 295 294 293 292 291 290 289 288 287 285 284 283 281 280 279 278 277 275 274 273 272 271 270 269 269 268 267
309 308 308 308 309 309 310 310 309 308 306 305 303 303 302 302 302 302 302 301 301 300 300 299 298 297 296 295 294 293 291 290 289 287 286 285 284 282 281 279 278 277 276 275 274 273 271 270 269 268 268 267
309 309 310 310 312 313 312 311 309 307 306 305 305 305 305 305 305 305 305 305 304 303 302 301 300 299 298 296 295 293 292 291 289 288 287 286 285 284 282 281 280 278 277 276 274 273 272 271 269 268 268 267
311 312 313 315 315 314 313 311 310 309 308 308 308 308 309 309 309 309 308 308 307 306 305 303 302 300 299 297 296 295 294 293 292 291 289 288 287 286 285 284 282 281 279 278 276 275 273 272 270 269 268 267
315 316 317 318 317 315 313 312 311 311 310 311 311 312 312 312 313 312 312 311 310 308 307 306 304 303 302 300 299 298 297 297 296 295 294 292 291 290 288 287 285 283 282 280 279 277 275 273 272 270 269 268
319 320 320 319 318 316 315 313 313 312 313 314 314 315 315 316 316 315 314 313 311 310 309 308 307 306 305 304 303 302 301 300 299 299 298 297 296 294 292 290 288 286 284 282 281 279 278 276 275 273 271 270
322 322 321 320 318 317 315 314 314 315 316 317 318 318 318 318 318 317 315 314 313 311 311 310 309 309 308 307 306 305 304 303 302 301 301 300 299 298 296 293 291 288 286 284 283 281 280 279 278 276 274 273
324 323 322 320 319 317 316 316 316 317 319 320 321 321 320 319 318 317 316 315 313 313 312 312 312 311 311 310 309 307 306 306 305 304 303 302 301 299 297 295 293 290 288 286 285 283 282 281 280 279 278 277
325 324 322 321 319 317 317 317 318 320 321 322 322 321 321 320 319 318 317 315 314 314 313 313 313 313 312 311 309 308 307 307 306 305 304 303 302 300 298 296 294 293 291 290 288 286 285 283 282 282 281 280
326 324 322 320 319 318 318 319 321 322 322 322 322 322 321 319 319 318 317 316 315 314 314 314 314 314 313 311 310 309 308 307 306 305 303 302 302 301 300 298 296 295 293 292 290 288 287 286 285 284 283 283
326 324 321 320 319 320 320 321 322 323 323 323 323 322 321 320 319 319 318 316 315 315 315 315 315 315 314 313 311 309 308 306 305 304 303 302 300 299 299 299 298 297 295 293 291 289 288 286 286 285 285 284
325 323 321 321 321 322 323 324 324 324 323 323 322 322 320 320 319 319 318 317 316 315 315 316 316 316 316 316 314 312 310 307 305 304 303 302 301 300 299 299 299 299 298 296 294 292 289 287 286 285 284 284
325 323 322 322 323 324 325 325 325 324 323 322 321 321 320 319 319 318 318 317 316 316 316 316 317 317 318 317 316 315 314 311 308 305 303 301 301 301 301 300 299 299 299 298 296 294 292 290 287 285 284 283
325 324 324 324 325 326 326 326 325 324 322 321 320 319 319 318 318 318 317 316 316 315 315 316 316 317 317 317 317 316 315 314 313 311 308 304 302 301 301 301 301 300 299 298 297 296 294 292 290 287 285 283
326 326 326 326 326 327 326 326 326 324 322 321 320 319 318 317 317 317 317 316 315 315 315 315 316 316 316 316 316 316 316 315 315 314 313 311 308 305 302 301 301 301 300 299 298 297 295 293 291 289 287 285
328 328 328 328 327 327 327 327 326 325 323 322 321 319 318 317 317 317 317 316 316 315 315 315 315 315 315 315 315 315 315 315 315 314 313 313 312 311 308 305 303 302 301 301 300 299 297 296 294 291 289 287
330 330 329 328 328 328 328 327 327 326 324 323 322 320 319 318 318 318 317 316 315 315 315 314 314 314 314 314 313 313 314 314 314 314 313 312 312 312 311 309 307 305 303 303 302 301 300 299 297 295 292 290
332 330 329 329 328 328 328 327 327 326 325 324 323 322 321 320 319 318 317 317 316 315 315 314 314 314 313 312 312 312 313 314 315 314 313 312 311 311 311 311 310 308 306 305 304 303 302 302 301 299 297 294
332 331 330 329 328 328 328 327 327 326 326 325 324 324 323 322 320 320 319 318 317 317 316 315 314 314 313 312 313 313 314 316 316 315 313 312 312 311 311 311 310 310 309 308 307 305 305 304 303 302 301 299